Location: Trebic
(49.2170°N, 15.8830°E)
Time: 04:10:51
(UTC+02:00)

Transit 4A - Pass Details

Date: 29 August 2019
Orbit: 865 x 980 km, 66.8° (Epoch: 16 September)

Event Time Altitude Azimuth Distance (km) Brightness Sun altitude
Rises 04:02:24 0° 312° (NW) 3,616 10.9 -18.7°
Reaches altitude 10° 04:06:03 10° 292° (WNW) 2,641 10.0 -18.3°
Enters shadow 04:07:11 13° 282° (WNW) 2,434 9.7 -18.1°
Maximum altitude 04:09:25 15° 258° (WSW) 2,247 - -17.9°
Drops below altitude 10° 04:12:44 10° 224° (SW) 2,586 - -17.4°
Sets 04:16:16 0° 203° (SSW) 3,497 - -17.0°
